Wind_Speed
12 11 10 11 11 12 12 12 12 13 13 14 13 13 12 11 11 10 10 9 9 10 10 10 9 9 9 8 9 10 13 14 13 8 9 9 8 8 9 11 14 15 13 10 9 8 7 6 6 6 5 3 1 2 3 2 1 1 2 2 1 2 2 1 1 2 1 5 4 2 6 11 8 3 3 5 7 8 8 6 6 7 9 12 16 25 26 24
14 13 12 12 12 12 13 12 13 13 13 14 13 13 12 11 10 10 10 9 9 10 10 10 10 9 8 8 9 10 14 16 13 10 12 10 6 10 15 13 14 17 15 10 9 9 7 5 7 7 4 2 1 3 4 1 1 1 2 2 2 2 1 1 1 3 3 4 5 3 6 8 8 6 4 6 6 7 10 7 7 11 11 14 20 24 24 24
16 14 13 13 12 13 13 13 13 13 14 14 14 14 12 11 10 9 9 9 9 10 10 10 10 8 8 7 8 10 13 12 7 7 7 6 9 14 17 14 14 15 15 10 7 9 7 5 8 8 3 2 1 3 4 1 1 2 2 2 2 2 2 1 3 1 6 1 6 5 5 5 6 8 5 8 9 7 9 9 10 12 13 14 16 20 23 22
18 16 15 14 13 13 14 14 14 14 14 14 14 13 12 10 9 9 9 9 9 9 10 10 10 8 7 7 8 10 10 5 2 4 1 2 11 17 19 15 14 13 11 7 4 7 6 4 4 5 3 2 2 4 3 3 3 2 3 2 2 4 3 3 3 2 5 2 5 4 4 5 4 5 5 10 10 4 7 10 13 16 16 15 14 17 20 18
19 18 16 15 14 14 14 15 15 15 15 14 13 12 11 10 9 8 8 8 9 9 10 9 10 9 7 8 8 9 5 1 2 4 1 1 8 17 19 16 14 12 10 7 4 6 6 4 3 3 2 2 3 3 3 5 3 1 2 2 2 3 3 4 4 2 2 3 7 6 4 1 2 3 7 12 11 7 8 10 14 17 17 17 16 17 17 16
20 19 17 16 15 14 14 14 15 15 15 14 13 12 10 9 8 8 8 8 9 9 9 9 9 9 8 8 6 5 2 1 3 3 3 2 7 15 18 16 14 13 11 7 5 6 5 4 3 2 2 2 6 5 3 4 3 1 2 3 2 2 5 6 5 3 2 5 6 5 2 3 3 3 7 11 8 7 9 11 14 15 18 20 18 16 15 13
21 20 18 17 16 15 15 15 15 15 16 15 14 13 11 9 8 8 8 9 9 9 9 9 9 8 10 8 4 3 2 4 6 4 5 3 7 13 17 16 13 13 13 9 6 5 5 5 4 3 2 2 7 5 3 5 2 1 3 3 4 2 6 4 4 3 4 6 5 4 4 3 1 3 5 6 4 6 11 12 13 15 19 20 16 13 13 13
21 20 19 17 16 15 15 15 15 16 17 16 15 13 11 10 9 8 8 8 8 9 9 9 8 9 11 7 2 3 1 5 4 6 7 5 6 12 17 17 14 14 15 13 9 7 5 5 4 4 2 3 5 5 6 6 2 1 4 3 2 3 6 5 6 4 5 5 4 6 6 1 5 2 5 5 6 10 13 14 13 14 16 16 13 13 12 12
22 21 19 17 16 15 15 15 15 16 16 16 15 13 11 10 9 8 8 8 8 8 8 8 7 8 11 6 2 2 2 3 2 5 6 6 5 10 17 18 17 16 14 12 10 9 6 5 6 5 1 3 2 7 8 3 2 3 6 3 0 6 6 5 7 5 7 4 3 5 3 3 5 1 4 4 10 13 14 15 14 13 13 13 12 12 12 11
23 21 19 17 15 14 14 14 15 15 15 15 16 14 13 11 9 8 7 7 7 7 7 7 6 7 8 5 3 1 2 3 1 4 5 6 6 10 16 17 18 20 13 9 11 10 6 5 3 1 1 2 0 5 4 1 5 7 10 7 3 8 7 4 6 6 8 5 3 4 2 4 5 2 4 3 10 15 15 15 13 13 13 13 12 11 13 13
23 21 19 17 15 14 14 14 14 14 14 15 16 15 14 12 9 8 6 6 5 5 6 6 5 6 5 3 3 2 2 4 3 3 5 7 8 10 14 16 18 21 15 8 12 15 10 4 1 2 0 1 4 6 4 5 10 9 11 9 6 9 9 6 5 3 5 4 2 3 2 3 5 3 7 6 11 15 16 15 13 12 11 12 13 11 11 12
23 21 19 17 15 14 13 14 14 14 15 15 15 15 14 12 10 8 6 5 5 5 5 4 4 5 4 2 4 6 1 5 8 7 8 9 7 8 11 14 15 21 18 8 11 19 14 6 1 1 1 1 4 4 5 7 9 7 6 7 4 7 8 7 4 3 3 3 3 1 3 2 4 2 6 8 11 13 15 15 12 11 10 10 11 9 8 11
23 21 19 17 15 14 14 14 14 15 16 15 15 15 13 11 9 7 6 6 5 4 4 4 4 5 4 1 5 5 3 6 9 8 9 9 8 6 8 11 12 18 19 10 11 16 14 11 5 3 4 1 3 3 7 6 5 5 3 4 4 5 5 4 2 2 6 3 4 2 3 2 2 1 2 6 11 14 13 13 11 10 9 9 9 8 7 9
24 22 19 18 16 15 14 14 15 16 16 16 17 16 14 11 9 7 5 5 3 2 2 3 5 3 2 4 7 3 4 6 7 9 8 9 10 6 7 10 10 14 16 13 12 9 9 8 4 2 3 1 5 7 8 4 2 3 2 1 2 3 3 0 1 2 6 0 4 3 3 4 4 3 2 5 11 15 13 12 11 10 9 8 8 8 7 7
24 22 20 18 16 15 14 15 16 17 17 18 19 18 16 12 7 5 3 3 2 1 2 3 4 2 2 6 7 5 6 6 9 11 8 10 12 6 6 10 11 13 13 14 13 11 8 3 2 2 1 5 9 8 5 2 1 2 2 0 2 2 3 2 1 1 3 2 2 2 3 3 4 4 4 5 11 14 13 12 11 11 10 9 7 7 6 6
24 23 20 17 16 15 15 16 17 18 19 20 21 20 17 11 4 3 2 2 2 1 1 3 4 3 1 4 6 6 6 6 8 9 7 11 14 8 5 8 10 11 12 14 13 14 12 4 2 2 4 6 7 6 3 3 1 2 2 2 1 3 4 3 1 2 2 3 0 1 3 3 3 4 6 7 10 12 12 12 12 11 10 9 8 7 6 5
24 23 20 17 16 16 16 17 18 19 20 21 23 21 15 7 1 2 2 1 1 2 2 1 2 3 2 6 5 5 5 6 8 6 6 10 14 12 4 3 6 7 7 11 11 8 6 2 2 2 3 3 4 5 4 2 2 2 1 2 2 3 4 4 2 3 4 3 1 2 3 2 0 3 8 9 10 11 11 12 12 10 9 9 8 7 7 6
24 23 20 18 16 16 16 18 19 20 22 23 24 20 11 5 2 2 2 3 2 2 1 0 0 2 3 5 4 6 11 9 6 4 6 7 11 14 9 4 3 2 2 4 4 3 1 0 2 3 2 3 4 5 4 4 6 5 4 3 3 3 2 5 4 4 6 4 3 5 3 1 3 5 4 7 8 10 11 12 11 9 9 9 9 8 7 7
24 23 21 18 17 17 17 18 19 21 23 23 22 16 7 6 5 3 4 5 2 0 1 2 1 1 3 6 7 11 14 7 2 3 6 7 8 11 10 6 1 2 1 2 2 2 1 2 3 4 4 5 7 8 5 4 7 8 6 5 6 4 1 3 3 3 6 4 3 6 4 3 3 4 2 2 4 7 9 10 9 8 8 9 9 8 8 8
23 22 20 18 17 16 17 19 19 21 23 22 20 11 3 4 4 2 0 3 3 4 4 3 4 2 5 7 8 10 12 6 2 4 6 6 6 6 4 2 2 3 1 1 2 2 2 3 2 5 6 9 12 11 5 4 5 7 4 5 7 5 3 2 2 3 3 2 2 2 5 6 4 2 3 4 3 6 8 8 8 8 9 10 11 10 9 9
23 22 20 18 17 16 17 18 19 21 21 19 17 8 1 1 3 3 3 3 6 9 8 7 7 7 8 8 9 6 6 4 2 3 5 5 5 4 1 1 3 2 2 3 2 2 3 3 6 6 7 9 10 9 3 2 5 7 4 5 5 4 3 3 3 4 1 2 2 1 4 7 5 3 3 5 3 6 6 9 10 10 10 10 12 12 10 8
22 22 20 19 17 16 17 17 20 20 16 15 14 4 2 4 3 3 2 4 7 6 8 6 6 7 9 12 15 7 1 2 5 5 4 3 2 2 1 3 4 2 3 1 1 4 2 5 8 7 6 6 6 6 4 4 4 5 4 5 4 4 4 4 5 5 5 1 3 1 3 4 2 3 4 4 2 3 3 6 8 9 9 10 11 12 10 8
22 21 21 19 17 16 16 18 20 16 12 16 14 4 6 13 11 6 1 2 6 4 4 4 4 5 6 8 10 4 3 3 3 5 4 5 1 2 3 3 3 2 2 2 3 0 3 6 7 6 6 6 6 6 6 5 4 4 5 5 4 6 5 2 4 5 4 1 3 2 2 1 2 2 4 4 3 2 2 4 4 6 8 9 10 10 11 11
21 21 20 19 18 16 17 20 16 10 15 18 11 6 14 20 16 7 1 0 4 5 4 5 4 4 4 5 3 4 3 3 2 3 4 6 2 2 4 3 3 0 2 4 5 4 8 8 2 3 6 7 6 6 6 5 3 5 7 6 6 9 5 5 8 6 2 2 2 5 2 3 2 3 5 4 2 2 2 3 4 4 5 5 7 6 8 11
21 21 20 20 17 16 18 16 7 9 20 15 5 12 19 20 19 7 1 2 3 5 4 2 1 2 4 3 3 4 1 2 4 5 6 8 5 2 2 3 3 2 5 4 4 4 10 9 1 1 5 6 5 6 5 6 4 4 7 8 10 12 8 12 14 9 3 1 3 6 3 3 4 5 7 4 3 4 2 3 5 5 5 4 5 6 7 9
21 20 20 19 18 18 15 7 5 15 19 7 6 16 19 21 20 5 3 4 2 5 4 0 0 2 3 2 3 3 4 3 7 6 6 9 8 4 2 1 1 3 5 3 3 3 6 5 5 5 6 7 6 6 5 6 6 3 7 8 8 11 12 16 17 9 3 3 5 6 4 1 2 6 10 7 6 8 5 5 7 5 6 5 5 6 6 8
20 19 19 19 19 18 11 5 11 16 8 4 11 18 20 23 15 2 3 5 2 3 2 2 0 1 3 2 3 5 2 4 5 3 4 10 7 2 2 3 1 2 3 1 1 3 4 2 5 8 6 6 6 6 6 8 7 4 6 11 11 12 14 17 15 6 1 3 4 6 3 1 3 7 11 10 9 10 9 8 8 6 7 6 6 6 7 9
19 18 18 17 18 18 12 10 13 10 5 9 16 19 24 22 8 5 5 3 1 2 2 3 1 1 3 1 3 3 3 3 1 3 2 9 6 4 1 5 4 5 3 3 3 5 2 3 6 8 6 5 6 7 7 11 7 4 5 12 11 11 12 11 8 3 1 3 4 8 4 1 3 4 5 8 10 13 14 13 11 9 9 8 7 6 7 9
18 17 17 16 17 17 13 12 11 7 8 13 18 24 25 14 2 5 4 2 1 2 2 1 2 2 2 2 1 1 1 1 1 4 2 4 4 3 2 5 5 5 4 4 6 7 4 6 6 6 5 6 8 7 9 11 5 3 12 13 10 11 10 6 3 3 2 2 4 10 8 3 3 2 4 6 8 14 15 14 13 11 10 10 8 7 7 8
16 16 16 15 15 14 13 14 11 7 11 17 24 27 18 5 4 5 3 1 0 3 2 1 2 1 3 2 3 3 1 2 2 1 3 1 1 2 1 2 3 1 3 1 5 7 7 6 3 4 5 8 7 5 6 10 10 13 15 13 11 8 5 4 3 3 1 3 5 11 12 4 2 3 6 8 13 17 15 12 13 12 11 11 9 7 7 8
15 15 15 15 14 12 10 10 9 10 17 23 25 19 8 2 4 5 1 1 1 3 3 2 3 1 2 2 3 3 1 3 1 2 1 0 3 4 2 2 3 2 4 4 3 5 6 4 2 4 6 5 4 2 5 11 14 12 8 9 9 5 4 4 4 3 2 4 4 8 12 6 2 4 7 12 16 17 16 15 16 17 14 11 9 7 7 8
14 14 14 13 14 13 10 9 13 18 22 23 17 8 4 2 3 2 2 3 2 3 3 3 3 1 1 1 2 3 1 2 1 3 3 1 1 1 2 2 1 2 3 2 3 5 5 4 4 4 3 4 6 5 6 7 8 9 8 7 7 3 3 2 1 3 4 4 4 4 10 6 5 7 8 13 15 13 13 14 14 16 16 13 10 9 7 7
13 13 13 13 14 16 16 17 19 19 19 16 8 4 5 4 2 1 2 2 2 3 2 3 4 2 3 1 3 4 2 2 3 2 2 2 1 2 3 4 4 3 1 3 2 4 4 5 5 4 3 2 7 7 5 2 3 8 9 6 5 4 2 1 2 2 3 4 3 5 9 3 5 5 6 12 16 15 13 11 11 13 15 14 12 10 7 7
14 11 11 13 15 17 17 17 15 13 13 10 5 5 6 4 1 2 2 3 4 3 3 3 4 1 4 3 4 3 2 2 3 3 2 2 3 2 4 3 2 4 1 1 1 0 0 3 4 2 3 1 3 6 8 8 6 6 6 6 7 6 4 4 4 3 3 1 2 5 5 3 2 3 4 8 11 12 11 10 10 12 12 12 10 10 8 8
14 11 11 13 15 16 14 11 7 4 5 5 6 5 4 1 3 2 2 4 3 3 5 3 2 4 2 2 4 2 3 2 1 4 3 2 2 2 1 3 1 3 3 1 2 1 1 4 7 5 4 2 2 3 7 10 6 2 2 5 4 6 6 3 4 5 4 2 2 3 3 4 4 4 3 0 2 6 9 8 9 11 12 11 10 10 9 8
14 11 9 10 13 14 12 9 3 1 2 5 6 3 0 3 3 2 2 3 2 3 5 5 6 5 4 3 4 3 0 1 1 3 3 1 1 1 2 2 1 2 2 1 2 1 1 4 7 6 4 2 5 4 4 7 4 1 2 3 4 5 7 4 1 1 3 2 1 2 3 4 2 4 4 4 3 4 7 8 10 11 12 12 11 11 10 8
15 11 7 9 12 12 11 7 0 3 3 6 5 0 3 3 4 4 3 3 3 2 3 4 3 2 3 3 3 5 3 2 1 3 2 2 1 3 4 3 3 4 1 2 2 1 1 3 6 4 5 5 3 3 3 4 5 5 4 5 2 2 4 4 2 2 3 1 3 2 4 4 2 2 4 5 3 3 5 7 8 9 11 12 11 11 10 9
14 9 6 6 7 7 7 3 5 5 4 5 2 2 2 3 4 3 3 4 2 2 5 2 1 1 2 2 2 4 3 1 2 3 2 2 2 2 3 3 4 6 4 1 2 1 2 1 6 2 3 7 3 5 4 3 2 5 5 4 3 2 1 1 2 2 2 1 3 3 3 3 1 2 6 6 2 3 4 6 7 9 10 11 10 10 10 9
8 5 4 3 9 10 4 5 6 4 5 3 1 2 2 3 5 4 5 4 2 4 3 0 1 1 2 1 1 3 3 2 1 2 2 2 1 1 2 1 3 5 6 4 3 2 2 2 4 6 4 5 4 5 2 4 4 2 2 1 1 3 3 1 2 3 3 2 2 3 3 2 1 4 7 8 7 3 5 6 7 9 9 9 9 9 9 9
3 4 2 4 10 10 3 8 4 5 3 0 2 3 2 3 5 6 6 2 2 2 1 1 1 2 2 2 1 1 2 2 1 3 2 1 1 2 3 1 2 4 4 5 5 2 2 3 1 7 7 3 1 2 1 3 2 1 2 0 1 1 2 1 0 1 4 4 2 1 1 3 3 5 6 9 9 5 7 7 6 7 8 9 9 9 9 7
3 4 3 2 9 6 6 6 3 3 2 2 2 3 3 2 3 5 6 2 3 0 1 1 1 1 1 2 3 2 2 3 3 3 2 1 3 1 3 0 1 3 3 5 5 3 2 2 1 4 5 3 2 4 2 2 3 3 2 2 3 3 3 2 1 2 1 4 3 4 2 3 4 5 6 7 7 4 3 5 6 6 7 8 8 8 7 6
3 2 4 5 10 1 7 3 2 2 1 3 3 4 3 1 2 4 5 4 4 1 1 2 1 1 2 1 2 2 2 3 3 3 2 0 3 2 3 3 2 1 3 2 3 2 0 3 2 3 2 2 5 5 5 4 2 5 2 2 1 3 5 5 2 3 0 2 2 3 2 2 4 6 6 7 6 5 5 2 1 2 4 6 7 7 6 8
2 3 7 8 11 3 5 3 4 1 2 4 4 4 3 1 2 2 3 3 3 2 2 2 1 2 2 1 1 3 3 2 2 2 1 0 1 1 5 6 3 2 5 2 3 3 2 3 3 3 4 5 5 5 5 4 4 4 2 4 2 1 2 5 4 3 2 2 1 2 1 1 4 7 6 7 8 9 9 8 6 4 2 1 3 4 6 8
1 4 5 7 10 5 4 1 2 3 4 4 5 5 3 1 2 1 2 2 0 1 2 1 2 2 2 2 2 2 1 2 1 2 2 2 1 2 4 6 5 3 2 1 1 1 2 2 3 3 5 6 7 6 5 6 5 2 3 5 4 3 0 3 2 2 2 1 2 4 1 3 3 6 7 9 10 12 11 10 9 7 6 6 7 7 7 6
2 2 3 6 9 6 3 4 2 2 4 4 4 5 2 0 2 2 2 0 1 2 3 1 1 1 2 3 3 3 3 3 1 2 3 2 3 3 5 7 6 3 2 2 4 3 2 1 2 4 4 3 3 3 4 4 4 2 4 6 6 6 3 3 2 3 2 1 2 4 2 2 3 7 9 10 11 11 11 10 9 8 8 8 8 9 9 8
2 1 3 5 6 6 1 2 3 1 2 2 4 4 1 1 2 1 2 1 2 2 3 1 1 2 4 5 4 4 5 3 1 2 2 2 3 3 4 6 6 6 5 4 5 4 4 3 4 5 5 2 2 5 5 3 1 2 5 7 7 6 4 3 3 3 4 3 3 2 1 2 6 9 9 9 10 10 9 9 9 9 9 9 7 7 7 7
2 1 1 2 3 3 3 2 4 2 1 1 3 2 1 1 2 2 2 1 1 2 3 3 5 4 2 3 3 2 4 4 4 3 1 2 3 4 4 4 7 8 7 4 4 4 5 3 3 4 5 3 2 4 5 3 4 3 4 7 7 7 8 8 5 2 4 4 3 1 3 6 6 8 8 8 8 8 8 8 8 8 9 9 9 9 9 7
1 1 0 1 1 1 1 3 5 6 4 2 3 2 1 0 1 1 0 1 2 3 3 3 6 4 3 2 3 1 3 4 5 3 2 2 2 4 6 4 5 7 6 5 4 4 6 2 2 2 7 8 7 8 8 6 6 6 6 7 8 11 12 10 6 3 5 6 5 5 8 8 6 7 7 6 6 6 7 7 7 7 8 9 10 11 10 6
1 1 2 2 0 2 3 4 5 6 7 5 1 0 2 2 3 3 2 3 3 3 4 3 4 5 5 3 4 3 1 2 3 3 2 2 2 2 3 3 4 6 5 4 4 2 5 2 2 4 5 7 8 8 8 7 7 8 9 8 7 10 12 10 9 10 12 12 9 10 11 9 6 5 5 4 4 5 7 8 8 8 7 8 10 9 6 4
1 1 2 3 3 3 3 4 4 4 5 4 2 3 2 2 4 3 1 4 1 3 3 4 2 4 5 3 5 4 2 6 3 1 2 0 2 1 1 1 2 4 5 3 2 2 4 2 2 3 5 4 7 5 8 9 8 9 10 10 8 7 8 7 6 8 10 10 8 8 9 7 4 4 5 4 3 5 8 9 8 7 6 7 9 7 4 4
3 3 1 2 2 3 2 4 3 3 3 4 3 4 5 3 3 2 1 1 5 4 3 6 5 4 5 5 6 2 4 8 6 4 5 3 0 1 1 2 3 2 4 2 1 3 3 2 1 3 5 1 4 1 6 6 7 9 10 11 10 7 5 4 4 3 4 6 5 4 5 4 2 2 4 5 6 8 9 8 6 5 5 6 7 5 2 2
6 3 2 2 1 2 1 3 3 2 1 3 3 3 3 6 6 2 2 3 1 4 6 8 7 4 4 5 3 2 5 7 7 7 5 4 1 2 2 2 1 1 1 1 2 2 3 3 2 2 5 2 5 5 4 3 5 5 5 6 6 4 3 5 6 7 4 3 2 2 2 3 3 2 3 6 7 8 8 7 6 6 6 7 6 5 5 4
Wind_Direction
7 5 1 359 356 354 353 350 346 344 345 341 341 341 339 339 335 333 330 328 327 327 330 335 342 343 338 338 333 322 319 316 314 293 244 250 253 214 174 171 173 170 176 168 160 156 149 161 180 181 177 175 183 162 132 109 118 87 78 105 136 205 218 168 156 242 162 113 129 169 124 131 148 140 85 71 73 108 105 80 100 94 97 108 120 132 137 140
9 6 3 359 353 350 350 349 347 345 343 341 342 340 338 338 335 333 330 329 329 330 334 337 343 342 334 338 332 322 323 319 308 278 248 246 237 188 166 160 173 181 188 182 182 173 142 138 161 159 148 157 194 159 155 172 171 132 100 130 191 221 268 75 140 296 353 104 132 119 118 133 145 139 133 120 113 115 109 108 115 106 105 111 123 133 137 140
7 6 3 358 353 351 351 349 349 346 344 344 342 339 338 338 337 336 334 334 333 334 337 338 343 340 334 334 326 323 322 322 304 268 261 230 201 180 165 160 166 182 196 199 199 184 156 126 145 148 146 198 204 155 172 209 191 164 125 176 190 179 272 234 165 2 349 30 129 127 128 122 142 144 140 135 132 133 132 139 136 127 129 131 135 137 140 143
6 4 2 359 356 354 353 352 351 347 346 344 342 341 340 342 345 344 341 337 334 336 338 341 344 340 341 335 320 321 321 326 276 250 320 201 190 176 171 167 160 171 189 193 185 180 169 120 125 136 142 215 191 147 185 193 180 174 141 194 168 141 215 223 145 65 351 7 112 110 107 103 134 134 127 134 128 145 166 159 151 143 143 143 144 144 146 147
6 3 1 359 357 356 355 353 351 349 345 343 346 346 346 350 353 352 348 342 340 342 343 348 349 346 345 335 315 317 333 71 234 255 321 270 187 178 178 173 165 168 175 180 167 163 158 113 79 92 133 211 171 151 196 183 158 151 140 92 90 134 193 195 151 109 18 71 83 68 67 6 288 112 140 152 150 170 177 166 154 145 146 148 149 149 149 150
6 4 2 359 357 356 354 353 353 350 346 348 354 355 357 359 1 3 359 354 353 350 353 353 351 351 344 333 314 322 14 168 269 256 239 211 181 185 181 175 173 172 178 186 170 156 137 114 99 117 171 198 176 183 171 159 151 136 146 68 33 213 198 187 154 132 133 114 100 95 99 313 325 116 155 168 169 164 154 155 150 142 145 147 148 149 151 155
5 4 2 358 357 355 354 356 355 354 352 354 357 359 3 7 15 16 9 5 1 0 2 354 347 347 346 340 320 359 52 267 273 215 219 203 176 190 183 178 177 174 185 192 165 146 129 136 155 165 212 206 185 193 127 137 166 96 109 62 2 205 177 165 117 117 119 120 117 97 71 19 323 156 148 164 160 137 141 145 144 137 142 147 148 152 155 157
4 4 2 358 357 356 356 358 358 358 356 356 358 2 7 13 21 20 16 9 1 4 5 356 349 342 350 1 353 360 349 266 263 195 216 220 184 187 186 185 185 185 194 198 175 149 140 148 186 201 223 233 189 166 138 136 144 85 101 87 345 138 138 98 92 100 86 88 83 69 60 9 257 209 128 157 150 136 141 143 143 137 141 150 152 155 157 159
3 2 1 359 357 357 358 358 359 360 357 358 0 7 13 16 19 19 18 7 360 3 0 359 349 346 358 9 61 18 268 283 268 206 222 234 214 186 188 192 194 194 197 202 181 156 162 176 198 207 244 279 195 145 157 152 111 125 108 102 246 119 110 91 97 95 82 59 52 70 36 310 284 358 96 174 151 139 142 144 149 142 145 156 156 159 160 165
1 0 359 358 357 357 357 357 358 357 359 2 3 5 7 11 18 16 13 6 1 355 356 360 346 354 4 9 67 72 289 345 321 238 247 246 229 190 189 196 195 196 197 192 177 171 181 177 177 215 311 297 28 115 162 159 94 114 110 88 53 94 84 59 79 85 90 59 43 87 13 317 310 72 107 202 153 141 142 147 154 148 150 158 158 164 167 172
359 359 358 357 357 357 355 355 353 354 360 4 4 1 356 357 5 6 4 360 355 351 356 354 344 350 360 47 85 237 276 15 356 299 283 264 237 208 200 199 196 198 198 173 180 198 199 185 49 24 314 44 61 68 81 97 101 115 117 88 45 85 79 52 64 61 88 61 7 91 49 331 340 86 138 171 153 143 144 150 158 154 155 160 162 169 172 176
358 358 357 356 356 354 353 351 348 351 359 2 1 358 352 346 346 349 349 343 341 347 352 348 347 343 348 67 191 220 212 351 331 316 293 273 252 244 225 208 202 204 199 171 191 208 210 220 244 78 267 95 98 93 101 110 107 111 109 91 80 93 69 40 39 349 68 73 287 67 66 16 11 78 150 158 150 145 146 152 159 159 161 165 169 174 177 177
356 357 357 355 354 353 350 347 346 349 354 356 353 352 347 336 329 327 329 332 330 337 347 351 340 341 3 314 228 222 266 312 313 302 283 265 255 262 234 214 214 211 203 199 208 211 217 226 208 189 248 133 114 136 134 133 111 99 76 95 117 99 60 15 11 40 76 66 283 72 103 235 315 322 169 160 152 145 148 156 160 164 167 173 178 181 183 173
356 358 357 356 353 350 347 344 345 346 348 349 348 345 337 326 313 301 311 322 321 330 338 350 342 350 44 271 264 281 304 296 289 278 263 242 244 249 221 213 218 215 214 229 235 227 228 228 203 219 282 125 129 130 128 129 106 110 90 64 81 99 118 159 236 120 86 345 274 84 138 225 272 270 199 174 158 150 156 163 164 169 173 179 185 187 187 175
357 359 359 357 352 348 346 344 343 344 344 345 346 341 331 322 301 280 293 305 296 303 331 5 8 13 6 289 281 300 302 283 272 269 251 228 228 226 212 211 220 225 229 242 248 258 271 279 200 206 39 124 134 128 121 96 50 84 97 75 359 69 127 134 314 31 87 183 250 76 141 207 260 237 183 172 164 157 161 166 171 176 177 181 187 188 188 180
357 360 360 356 352 348 345 344 342 342 343 344 345 340 331 327 296 248 259 274 278 250 51 45 37 46 55 291 301 305 281 255 269 277 257 232 223 228 225 209 228 239 239 246 255 267 278 293 211 169 118 133 136 125 98 71 27 346 96 144 117 104 130 134 12 325 115 131 185 53 142 175 245 199 161 169 172 165 166 171 176 178 178 182 185 189 185 171
357 359 360 356 351 347 343 343 341 340 342 345 345 342 342 347 208 204 218 206 232 193 128 70 28 42 265 280 317 319 290 262 268 264 236 231 225 235 246 198 239 248 246 253 258 271 277 239 176 130 103 126 140 128 96 70 246 293 77 113 134 139 139 141 167 248 182 147 150 112 133 182 54 125 160 177 177 171 174 179 180 179 180 182 184 189 185 171
356 358 358 354 350 346 344 342 339 340 342 345 347 348 2 45 130 164 146 138 140 160 131 227 106 49 276 286 323 299 296 287 268 228 205 221 228 236 240 230 250 257 329 295 263 242 219 198 94 97 99 122 149 149 145 199 194 182 169 129 133 161 181 169 168 197 180 163 155 143 135 166 42 49 161 186 184 184 185 185 184 178 178 182 184 188 186 179
354 357 356 352 349 345 342 340 339 340 340 344 349 351 22 66 85 103 118 122 102 48 298 252 158 38 266 278 300 296 300 299 249 216 206 215 222 229 233 236 256 108 72 350 313 245 148 66 79 125 160 166 182 191 177 180 175 166 161 143 150 159 183 180 142 158 172 136 133 167 154 137 90 37 351 220 187 201 203 195 187 175 177 182 184 187 186 186
353 355 353 350 347 343 340 339 338 338 339 342 348 353 29 44 43 16 65 154 205 224 241 228 173 247 276 279 293 302 313 315 215 219 215 208 197 193 217 240 48 58 103 176 264 285 113 124 191 183 181 178 192 205 184 87 124 134 116 130 150 146 123 109 108 147 176 88 77 182 145 147 151 101 314 296 177 194 212 207 195 178 177 182 184 185 183 189
350 351 351 348 345 341 339 336 334 336 337 338 349 9 132 350 19 335 316 266 240 214 223 228 190 223 259 265 274 297 331 322 259 251 222 196 158 151 234 53 83 355 291 190 237 344 89 186 227 202 186 187 200 216 217 66 124 130 125 136 139 139 111 66 117 131 16 52 74 359 142 161 171 152 256 280 175 180 208 207 199 184 179 183 182 182 183 187
348 349 349 345 343 340 336 333 332 334 337 340 349 12 213 309 317 277 326 314 279 220 217 231 203 240 260 262 266 267 23 287 289 298 225 165 95 158 248 65 114 231 299 82 336 353 3 240 237 217 185 179 208 217 209 222 178 135 130 139 140 145 104 69 106 82 7 31 114 7 166 168 196 178 212 246 206 188 221 222 205 182 180 187 183 179 180 179
346 346 346 343 341 339 334 333 330 333 343 340 336 321 337 351 335 292 279 318 291 274 236 209 183 237 266 277 266 206 141 228 265 296 218 149 118 173 135 93 137 204 1 109 175 246 266 251 242 219 174 160 203 209 197 214 194 150 148 146 162 169 147 121 117 79 12 299 124 127 174 242 303 267 232 215 209 240 241 253 238 187 181 189 187 181 178 176
343 344 344 339 338 338 333 330 329 336 341 333 325 335 354 360 352 324 250 271 296 292 261 217 189 205 232 280 258 155 169 210 184 268 202 144 126 137 146 150 133 139 274 194 180 195 244 257 259 156 161 168 203 213 198 189 186 186 176 166 169 173 154 109 124 119 66 8 95 117 82 292 227 241 251 204 168 252 238 242 249 211 193 182 179 188 189 180
341 341 341 337 335 337 332 329 330 338 335 330 333 349 351 354 352 348 119 38 320 291 283 238 240 232 232 259 215 180 170 240 218 218 180 156 154 126 165 171 122 231 248 210 176 222 254 258 241 162 176 170 197 223 206 165 160 207 208 201 180 163 131 113 133 139 118 217 202 155 141 259 213 214 242 223 180 226 236 233 229 203 194 181 172 187 200 190
339 337 338 335 331 333 334 332 334 333 332 328 335 341 342 344 347 355 117 42 337 295 314 321 129 244 251 230 178 121 60 295 248 222 178 170 171 136 150 224 82 223 225 197 176 226 260 238 181 212 202 171 188 228 218 157 146 215 217 201 170 141 126 134 149 154 160 185 199 191 176 230 238 225 228 224 216 221 220 230 232 204 190 195 188 182 187 194
337 334 334 332 329 333 335 313 320 327 325 309 325 332 335 340 346 105 99 28 345 295 290 268 49 165 247 218 136 100 94 272 275 261 177 170 175 88 149 226 321 248 218 134 252 239 252 242 192 206 198 172 185 224 216 151 145 235 197 163 153 145 141 149 156 155 151 107 152 204 193 87 244 233 218 213 220 228 226 227 233 219 199 198 198 188 180 188
335 332 329 328 328 328 323 309 314 318 299 307 322 329 332 336 347 125 87 44 337 319 248 266 303 229 272 277 124 128 211 254 328 295 190 160 166 69 100 219 191 233 236 135 252 262 240 248 220 203 185 180 206 221 188 153 171 251 155 143 146 139 134 141 143 123 123 110 154 207 198 143 251 248 197 197 216 229 226 223 224 216 205 198 196 192 181 183
333 329 324 324 324 321 318 308 302 299 302 315 325 328 330 334 21 92 70 85 339 309 249 320 331 276 321 33 327 299 301 5 204 269 11 131 171 96 167 212 176 228 251 169 225 265 250 231 213 183 173 201 222 215 167 160 186 103 98 102 98 99 99 101 96 82 122 154 191 200 189 174 264 238 157 170 212 226 224 220 218 213 204 197 195 192 181 177
333 327 320 320 319 316 314 304 294 295 308 317 323 325 332 352 80 63 37 61 302 271 265 344 296 295 53 58 307 311 284 243 235 319 27 71 327 35 193 205 114 194 288 232 231 257 263 249 195 169 197 203 210 204 155 149 133 99 93 92 84 78 71 61 36 46 136 251 231 200 189 175 298 236 181 185 208 212 210 210 210 211 207 197 194 188 180 175
334 326 317 315 312 306 303 299 303 311 312 316 321 327 348 49 69 80 69 5 4 282 307 297 270 324 97 157 280 302 260 261 257 106 150 356 22 19 350 351 39 37 353 339 278 282 292 272 213 223 220 176 138 91 119 137 127 106 104 113 97 54 23 43 13 345 236 249 262 202 183 175 258 249 208 212 218 209 203 203 199 200 203 199 194 186 181 177
336 326 313 308 303 292 279 283 301 309 311 316 325 349 66 49 27 90 256 334 353 279 289 265 263 270 186 192 262 245 215 282 257 146 167 173 124 187 190 192 153 28 342 302 306 325 306 255 260 291 260 141 110 89 98 122 118 109 122 122 101 68 27 56 346 287 236 250 293 170 159 176 249 252 229 225 230 220 210 208 197 193 197 197 194 188 183 178
335 323 312 304 297 289 286 293 301 306 313 320 340 49 82 73 29 239 261 312 252 244 262 248 249 209 147 103 274 232 177 260 254 167 144 135 113 297 273 215 161 108 249 247 310 343 323 293 310 326 299 142 125 127 126 134 130 132 141 133 111 112 100 187 213 263 248 271 331 129 146 200 269 261 236 221 223 218 210 207 192 187 193 195 195 187 181 181
336 324 313 304 295 291 296 303 302 305 319 338 31 59 58 64 290 277 277 265 245 259 290 266 266 254 133 166 246 210 125 263 224 126 74 58 57 330 299 294 154 145 166 311 296 253 104 291 283 242 259 340 124 156 158 154 155 162 160 136 135 151 158 184 198 204 212 244 43 119 156 211 224 251 240 220 227 214 198 198 186 182 190 192 191 186 181 186
338 324 315 306 295 292 302 310 303 305 341 18 54 57 60 109 260 276 255 256 267 306 309 311 11 26 38 260 273 216 155 245 193 95 58 72 133 222 276 352 345 154 118 40 253 208 122 249 257 254 243 152 150 201 147 130 140 210 134 111 143 175 156 151 180 170 155 133 117 156 219 230 210 266 289 183 230 198 181 185 179 181 188 186 187 188 183 188
342 333 324 306 294 293 306 318 307 154 72 60 57 43 129 217 223 199 232 260 285 308 329 360 35 32 345 321 316 307 43 55 80 72 30 71 136 327 351 327 311 126 135 192 239 327 25 272 280 307 310 198 181 204 146 130 150 165 128 159 198 168 131 118 133 100 98 121 205 203 256 293 308 312 336 59 98 164 173 178 179 183 186 185 190 188 183 187
346 343 322 297 298 297 303 313 220 136 84 77 80 271 233 222 208 201 253 292 293 330 52 27 21 38 331 334 327 318 347 13 46 74 29 4 15 345 340 306 343 38 85 188 207 267 141 278 294 347 339 293 212 145 89 110 131 131 169 204 196 69 88 111 110 36 59 166 257 223 232 289 328 305 336 25 78 165 173 175 177 181 184 190 194 187 182 184
341 341 318 310 336 336 317 289 155 133 74 73 79 256 215 228 232 219 270 291 296 44 70 51 336 47 6 8 311 309 1 21 360 62 76 13 8 355 1 326 335 2 350 75 88 314 90 336 292 309 328 304 340 67 47 355 62 129 171 183 112 106 277 96 135 141 120 192 278 282 266 271 221 281 333 343 308 206 174 172 175 181 187 192 194 187 181 178
350 358 332 41 50 25 12 156 145 97 56 60 284 260 218 253 265 257 275 294 74 70 62 291 278 26 17 22 278 312 20 48 4 75 93 39 6 307 9 344 306 331 343 39 68 307 60 81 288 300 312 309 1 46 35 302 329 52 110 39 62 144 168 165 152 156 146 165 246 303 322 296 270 321 326 310 291 234 180 181 182 185 187 188 192 189 181 176
35 17 286 112 41 11 102 142 108 63 62 206 214 230 239 265 279 275 275 301 81 86 57 270 302 36 346 317 358 343 27 54 87 95 78 82 120 284 294 325 319 319 346 36 54 7 17 76 312 308 328 4 17 356 203 216 261 7 96 152 290 93 130 162 148 130 132 143 190 216 299 284 302 330 321 306 294 245 193 186 185 187 186 186 191 188 181 173
44 26 209 135 7 353 134 120 38 86 137 260 224 236 247 241 282 290 287 345 70 148 121 132 257 51 3 335 23 13 16 33 39 80 67 86 123 233 279 330 306 306 14 29 26 19 358 54 42 311 344 32 251 270 291 241 207 174 135 174 196 159 128 126 310 298 127 131 167 165 186 278 316 334 325 324 311 277 196 179 184 186 186 187 190 187 175 143
67 34 251 333 351 339 134 81 323 134 183 256 234 240 239 216 277 287 304 17 54 353 48 92 238 52 50 338 18 34 55 36 11 60 94 129 128 176 300 327 293 299 71 41 319 315 113 81 47 290 283 269 266 287 315 317 161 142 108 51 144 140 120 127 196 257 167 112 145 120 125 270 334 345 339 345 349 9 34 43 167 173 184 181 177 172 144 116
115 277 282 342 359 35 104 17 318 359 274 258 266 259 221 185 257 272 330 16 47 359 23 39 345 54 49 330 29 47 54 51 10 35 123 234 54 292 306 320 325 61 73 70 295 315 44 54 6 305 299 306 312 322 323 345 53 81 24 14 21 299 156 153 173 189 150 145 139 81 80 265 346 353 347 354 13 35 38 28 34 38 26 90 127 131 117 115
194 269 278 342 358 19 99 150 280 296 280 284 305 284 244 168 212 215 1 343 331 77 76 15 345 47 43 17 53 42 48 90 38 351 63 86 346 299 332 360 36 57 38 128 187 342 30 28 15 14 356 348 352 352 344 355 19 36 335 339 335 322 119 145 122 90 101 275 116 113 166 254 327 356 3 11 25 37 37 33 39 38 33 43 57 58 56 67
324 285 270 317 353 29 121 166 174 255 281 294 291 276 272 321 226 190 138 261 273 110 110 288 322 68 55 50 43 2 34 89 110 343 32 34 304 308 356 14 45 51 347 135 137 109 90 56 33 66 65 38 8 325 296 305 331 350 338 338 343 353 27 143 142 101 124 301 49 96 163 233 346 6 15 18 25 32 30 31 39 45 49 54 60 65 65 60
23 8 311 315 357 37 79 150 109 115 295 302 286 277 198 197 267 251 99 66 323 62 82 341 19 63 48 56 42 353 3 33 87 74 50 343 306 303 332 5 39 35 14 72 105 96 95 60 33 83 103 118 234 258 256 249 353 17 346 351 1 360 22 92 96 105 145 128 48 32 136 83 23 13 17 18 24 29 23 25 40 50 55 57 58 65 75 80
65 346 351 329 338 9 1 22 44 7 314 214 250 265 203 237 287 342 47 70 310 50 63 15 40 56 24 60 79 9 348 356 22 52 34 304 287 294 318 17 34 14 7 34 49 74 94 58 6 53 46 9 326 346 352 16 53 39 1 11 24 32 48 61 66 134 153 113 74 54 92 76 39 24 25 22 26 30 24 28 44 55 59 63 61 57 63 73
40 296 101 67 279 275 345 341 337 333 322 259 220 206 230 296 104 160 41 44 350 34 83 27 21 33 360 34 106 99 357 5 5 3 349 339 332 336 348 8 13 8 20 23 11 82 105 100 227 85 31 11 17 25 26 41 54 44 33 29 36 52 62 65 66 97 110 101 110 111 90 74 50 37 32 22 18 23 32 41 54 62 65 71 72 68 66 69
13 359 316 359 324 219 251 291 303 326 324 302 305 343 216 131 122 203 210 73 3 352 91 83 10 25 23 29 111 107 51 66 21 341 301 332 350 19 15 355 342 5 42 39 360 77 100 93 177 126 60 15 7 18 28 37 42 38 28 15 22 55 68 70 74 86 93 98 109 105 85 68 48 32 24 16 7 21 45 55 57 60 62 77 91 94 106 147
12 352 326 354 343 274 265 286 306 341 330 323 360 338 296 158 155 197 151 105 120 318 56 99 90 72 60 66 100 93 170 161 125 335 202 54 2 27 103 209 278 343 25 49 348 16 78 109 183 117 82 4 337 14 51 53 52 44 23 3 4 38 55 51 60 83 92 100 115 108 89 74 49 19 15 27 36 53 65 67 65 67 68 86 106 125 158 163
321 274 323 29 318 304 282 288 334 34 347 341 4 344 331 293 224 170 46 136 168 170 148 142 136 93 54 57 81 86 210 175 168 213 192 162 198 214 198 189 198 332 5 38 359 9 60 93 17 70 93 140 269 103 89 77 63 46 20 359 356 10 42 49 30 36 95 137 145 98 81 80 56 19 28 49 62 66 66 61 55 51 49 65 94 119 122 67
353 311 3 77 260 306 324 298 353 55 270 301 320 309 291 278 268 159 93 322 241 166 168 155 137 100 62 54 70 224 217 188 198 219 191 167 183 178 192 206 164 110 109 107 45 33 96 98 63 77 93 150 221 185 130 65 47 31 341 329 336 351 44 63 39 24 38 143 143 67 102 114 98 100 87 68 58 54 51 44 32 24 25 37 51 59 57 53
Height
803 801 801 799 799 798 797 796 795 794 793 791 790 789 788 788 787 786 785 784 784 782 782 781 780 780 779 778 777 776 775 773 772 773 771 762 759 761 762 764 764 766 767 768 770 771 773 775 777 777 779 781 782 784 784 784 786 791 800 811 815 814 810 803 802 801 796 798 799 795 792 797 803 799 794 796 800 802 805 806 804 804 803 805 807 808 811 814
803 802 800 799 799 798 797 796 795 793 792 791 790 789 788 787 786 785 784 783 783 782 781 780 780 780 778 778 777 775 774 772 772 770 763 757 758 760 761 763 764 765 766 767 769 770 773 776 776 777 780 784 784 784 786 786 788 796 803 811 814 811 805 797 798 797 795 798 797 794 793 796 799 799 796 803 811 808 810 812 809 810 810 809 809 811 813 814
802 802 800 799 798 797 796 795 794 793 792 791 789 788 787 786 785 784 784 783 782 782 781 780 780 779 778 778 776 775 774 772 771 765 757 755 758 759 761 762 763 765 765 767 768 770 773 774 775 777 782 786 785 785 790 789 791 795 800 809 810 806 802 796 794 795 796 795 795 797 794 795 797 794 797 805 812 812 813 813 812 815 815 813 812 812 814 815
802 801 800 799 798 797 796 795 794 793 791 790 789 788 786 785 785 784 783 783 782 781 781 780 779 778 778 777 776 776 774 774 768 759 756 756 757 758 761 762 762 765 766 767 768 770 772 773 775 776 783 789 785 786 791 790 791 794 797 803 802 800 801 796 792 793 794 792 794 798 796 798 796 792 798 804 813 817 813 808 807 811 813 813 812 812 814 816
802 801 800 799 797 797 795 794 793 792 791 790 788 787 786 785 784 783 783 782 782 781 780 780 779 778 778 777 776 775 775 779 768 756 757 757 757 759 760 762 763 764 765 767 768 770 772 773 775 778 784 789 788 790 792 786 788 794 796 798 797 798 800 795 791 793 794 792 794 799 802 802 797 795 799 802 810 813 807 803 802 804 807 810 811 812 814 816
802 801 799 798 797 796 795 794 793 792 791 789 788 787 785 785 783 783 783 782 781 781 780 779 779 778 778 776 776 774 776 778 764 756 759 757 758 759 760 762 763 764 765 767 768 769 772 774 778 783 786 788 790 791 789 784 786 796 798 796 797 797 796 793 790 793 793 793 796 799 802 800 799 801 799 800 804 801 797 799 800 802 804 807 810 813 815 816
802 800 799 798 796 796 794 794 793 791 790 788 787 786 785 784 783 783 782 782 781 781 780 779 779 778 777 777 776 775 776 771 758 757 758 757 759 759 761 763 762 765 765 766 768 770 773 776 780 783 786 788 788 788 787 785 785 794 800 798 798 795 793 792 792 794 793 795 796 797 801 802 804 805 800 801 801 797 796 798 800 803 805 808 811 813 815 816
801 800 798 797 796 795 794 793 792 791 789 788 787 786 785 784 783 783 782 782 781 781 780 779 779 778 777 777 776 777 775 766 756 758 758 757 759 759 761 762 763 764 763 766 767 769 773 777 781 781 787 786 782 785 786 787 790 795 800 799 797 795 793 792 793 795 794 796 796 797 806 808 805 801 800 803 800 797 797 798 801 804 807 810 812 813 815 816
801 800 798 797 795 794 794 793 792 791 789 788 787 786 785 784 783 783 782 782 781 781 780 779 779 778 778 777 777 778 770 760 757 758 757 758 758 759 761 761 763 763 763 766 766 769 772 776 779 777 783 782 777 783 784 788 795 794 797 799 797 796 794 793 795 796 796 798 798 802 808 806 800 799 804 804 799 797 797 800 803 805 810 812 812 813 814 816
801 799 798 796 795 794 793 792 792 790 790 788 787 786 785 784 784 783 782 781 781 780 780 780 779 778 778 776 778 777 764 757 759 758 758 758 758 759 760 760 762 762 763 765 766 768 768 772 773 770 777 778 778 783 783 787 792 792 796 799 798 797 796 796 797 797 797 800 801 804 808 803 797 801 810 806 797 797 800 804 805 806 811 812 813 813 814 816
800 799 797 796 795 794 793 792 791 790 790 788 787 786 785 784 783 782 782 781 780 780 779 779 778 778 778 777 780 775 761 758 760 758 759 758 758 758 758 759 760 762 763 764 765 765 765 768 767 769 777 777 781 786 786 786 789 792 795 800 802 798 798 798 800 800 799 804 803 801 805 802 798 803 809 805 798 798 802 807 807 809 811 811 813 813 814 815
800 798 797 795 795 793 792 792 791 790 789 788 788 786 785 784 783 782 781 781 780 780 779 779 779 778 777 778 777 768 759 759 760 758 759 758 758 758 758 759 759 760 761 763 764 763 765 766 765 774 777 775 785 793 791 786 788 793 793 802 807 800 803 804 802 802 801 807 803 800 811 811 806 809 806 801 800 801 804 808 809 810 812 812 812 813 814 814
799 798 796 795 794 793 792 791 790 790 789 788 787 786 785 783 782 782 781 780 780 780 779 778 778 777 778 776 767 760 759 759 759 758 758 758 759 759 758 759 759 760 761 762 762 762 765 766 767 773 772 776 788 788 786 786 789 796 795 803 810 809 814 810 805 804 803 810 803 804 825 825 812 809 805 801 802 805 809 810 810 811 812 812 813 813 814 814
799 797 796 795 794 793 792 791 790 789 788 788 786 785 784 782 781 781 780 780 779 779 779 779 778 777 779 772 759 758 760 758 758 757 757 758 758 759 759 759 760 760 762 762 762 763 765 765 767 770 770 775 782 781 786 792 793 799 802 804 809 816 822 812 806 808 809 812 803 807 828 827 813 809 804 803 803 806 812 812 811 812 812 813 813 813 814 814
799 797 795 794 793 792 791 790 789 788 788 786 785 783 781 780 780 779 779 779 779 779 778 779 778 778 779 770 757 757 759 757 757 756 756 758 758 759 758 759 760 760 762 762 762 762 764 766 769 774 776 773 776 787 796 799 798 801 810 816 813 817 822 813 807 808 811 812 804 809 826 825 815 809 804 803 804 806 811 813 812 812 812 813 813 813 814 814
798 797 795 794 793 791 791 789 788 788 786 785 784 782 779 779 778 778 779 778 779 779 779 779 778 779 781 770 758 756 757 756 756 755 756 756 757 758 758 759 760 760 762 761 762 762 763 767 769 772 777 779 784 794 802 808 809 806 811 821 820 820 823 817 811 806 806 810 809 812 823 824 815 807 804 804 806 808 811 813 812 812 812 812 813 813 814 815
798 796 794 793 792 791 790 788 788 786 785 784 782 779 778 777 777 778 778 778 779 779 778 779 778 780 776 763 759 760 756 755 755 755 755 755 757 757 758 760 760 760 761 760 762 763 764 768 771 774 779 785 788 793 808 822 822 814 812 817 819 819 821 821 817 808 804 809 813 814 818 821 814 807 806 806 807 810 812 813 812 811 812 811 812 813 813 815
797 795 794 793 792 790 789 788 786 785 784 783 780 778 777 777 777 778 778 778 779 779 780 779 778 783 777 763 762 762 756 755 755 754 755 755 756 757 758 759 759 761 764 765 765 766 768 769 774 784 788 791 791 794 808 815 812 813 813 815 819 819 819 821 818 809 806 811 815 818 820 819 814 811 810 808 808 811 811 811 811 810 811 811 812 813 813 814
797 795 794 792 791 790 788 787 785 784 783 782 780 778 777 777 777 778 778 779 780 780 781 779 777 783 779 766 760 758 754 754 755 754 755 755 756 757 757 759 760 764 771 775 772 769 771 775 782 793 797 796 793 790 793 794 794 802 805 809 817 820 819 816 813 808 807 814 817 819 821 819 817 816 814 812 809 811 812 810 811 811 811 811 812 812 813 813
797 795 793 792 791 789 788 786 785 784 782 781 780 778 779 781 782 781 779 778 777 775 774 773 773 775 772 764 758 757 756 754 755 754 754 754 755 757 759 760 764 768 775 779 778 770 771 783 789 792 794 792 788 783 783 785 788 797 803 808 813 817 819 814 812 809 806 815 821 818 818 819 818 817 817 815 811 811 813 812 812 811 811 811 811 812 812 812
797 795 793 792 791 789 788 786 785 784 783 781 780 780 783 786 788 786 780 775 770 767 769 767 767 769 765 761 758 757 760 759 755 753 754 754 754 761 765 765 772 778 778 778 777 772 775 787 788 784 785 785 783 781 782 786 789 795 804 811 814 817 819 814 811 811 807 815 824 820 820 821 818 817 818 816 812 812 812 812 812 811 810 810 809 811 811 810
797 795 793 792 790 789 787 786 785 784 783 782 780 782 783 783 784 783 781 781 771 762 765 765 765 766 760 758 756 756 764 766 761 756 754 754 757 765 769 769 778 782 779 779 781 782 786 787 782 778 779 781 782 781 784 788 791 797 804 812 817 816 818 818 814 815 813 817 825 825 824 825 820 817 819 817 813 811 811 810 809 809 810 810 809 809 810 811
797 794 793 792 790 788 787 785 784 783 783 782 781 781 781 780 780 779 781 786 778 764 763 765 766 765 761 758 754 755 764 768 766 759 752 755 761 765 769 773 779 781 781 783 786 793 794 783 773 774 778 782 784 783 784 788 791 798 803 810 817 813 815 822 824 824 819 817 823 826 827 826 822 818 817 816 812 809 810 809 808 807 807 808 807 806 808 810
796 793 792 791 789 788 786 785 783 783 782 781 781 780 780 780 779 779 780 785 784 770 762 761 760 762 761 756 752 757 763 762 763 760 752 756 763 764 768 773 779 783 783 783 785 792 789 775 768 772 778 782 785 784 785 791 796 798 798 802 808 809 809 815 824 827 822 821 821 824 835 832 823 823 819 814 813 811 809 810 809 807 804 804 805 805 806 806
794 793 791 789 789 787 786 784 782 782 782 780 780 779 779 779 777 777 781 790 791 775 762 760 759 758 755 753 754 755 760 760 757 755 750 753 761 766 769 770 777 785 784 783 787 790 783 770 768 774 778 781 784 785 783 788 798 801 795 791 794 801 806 811 820 825 831 835 824 822 844 842 823 823 822 815 815 814 811 810 810 808 804 804 805 805 806 805
794 793 790 789 788 787 785 783 782 783 781 779 779 779 778 778 777 776 782 798 798 779 768 765 764 761 754 755 754 753 766 766 751 748 749 751 754 760 771 773 774 781 780 779 785 785 777 767 768 774 777 780 785 786 780 781 798 805 790 782 788 796 805 812 816 823 833 836 822 817 836 843 830 823 817 814 816 815 813 811 808 807 805 804 804 803 804 806
794 792 790 789 787 786 785 783 783 783 781 780 778 778 777 776 776 774 786 810 805 782 775 770 764 761 756 754 751 759 778 770 751 748 748 751 752 754 770 776 776 777 772 777 788 782 771 769 770 772 775 781 785 784 776 776 794 796 777 777 790 795 804 810 812 821 826 825 825 822 827 839 839 823 810 811 817 815 813 811 807 806 805 803 802 802 802 803
793 791 789 788 787 786 785 784 784 781 780 780 776 777 776 774 775 776 796 823 808 778 773 768 759 756 753 752 752 760 769 762 762 760 745 748 754 757 771 775 774 776 768 779 793 780 768 771 771 770 776 782 779 774 769 771 783 782 770 776 787 793 801 806 812 821 822 826 837 831 825 838 838 818 807 812 819 817 811 808 805 803 803 802 801 800 799 800
792 790 789 788 787 786 784 784 782 780 779 777 775 776 774 772 775 781 804 820 800 775 770 765 759 757 756 757 759 761 760 760 768 761 746 751 753 756 769 769 769 774 769 775 785 775 766 764 761 765 773 774 767 763 762 767 777 775 773 781 788 796 803 807 816 821 824 834 841 830 824 836 834 818 815 820 821 816 806 801 800 798 798 799 799 798 798 798
790 789 788 786 785 784 784 782 779 779 777 775 776 774 771 775 781 798 819 814 793 779 770 765 765 764 763 767 767 765 764 764 762 757 755 758 755 755 761 760 763 772 773 774 776 771 762 755 756 760 762 758 755 758 759 764 772 773 780 791 800 808 810 814 821 822 832 838 829 821 820 830 833 819 814 811 801 795 794 796 797 795 795 796 796 796 796 796
788 787 786 785 784 784 783 781 778 777 776 774 775 771 773 782 791 814 824 802 787 783 772 769 769 765 767 773 773 768 767 765 761 762 766 764 763 765 766 767 770 775 779 777 773 769 763 759 758 752 747 746 752 760 761 761 765 772 785 796 810 822 821 827 837 836 843 837 816 811 815 829 837 818 801 793 780 777 784 788 790 791 792 793 793 794 794 794
787 785 785 783 783 782 782 781 777 777 775 774 773 772 780 794 804 816 810 792 790 788 776 774 771 767 770 773 774 770 768 768 763 764 769 770 772 772 773 776 777 784 792 786 778 773 764 760 757 748 743 743 754 768 773 770 769 777 789 797 817 839 840 845 854 848 842 831 814 810 815 830 830 804 789 787 778 777 778 777 781 785 787 789 790 791 791 791
785 783 783 782 781 780 779 779 777 777 775 772 774 775 786 805 813 809 800 794 792 781 772 772 768 767 771 774 775 770 768 770 765 765 768 771 775 774 773 772 772 783 792 789 786 782 773 763 754 752 749 742 750 770 782 782 780 783 789 796 817 844 855 859 859 848 838 827 816 811 816 826 816 790 779 778 773 771 771 772 776 780 783 785 786 787 789 790
783 781 781 780 779 778 778 778 777 776 774 772 777 782 794 813 813 801 796 792 783 773 770 771 768 768 772 774 773 767 771 773 766 767 770 772 778 779 775 772 770 775 781 785 787 786 789 781 762 755 755 747 747 758 765 771 779 781 776 783 803 820 833 844 843 836 835 832 824 819 819 819 807 785 772 768 765 765 767 770 772 776 780 781 783 785 787 789
781 780 779 778 777 776 776 777 776 776 775 774 782 794 806 816 810 799 794 786 778 775 772 769 769 774 776 774 769 764 769 772 767 768 773 775 780 780 776 773 771 771 778 788 786 783 792 785 761 750 749 747 749 749 748 760 779 781 772 781 795 794 797 813 819 816 823 833 833 827 816 801 787 774 765 766 766 765 767 770 772 777 779 780 783 784 786 788
780 778 777 777 776 775 775 776 776 775 775 779 793 804 807 806 801 794 787 779 778 777 775 774 774 780 784 779 773 768 765 768 769 771 775 777 779 778 776 773 769 768 774 783 783 783 791 781 759 751 748 743 747 746 743 755 773 780 781 783 781 774 777 797 813 811 815 828 828 822 813 795 784 776 768 770 772 770 771 772 773 777 778 780 782 782 784 786
778 777 776 775 775 775 775 775 775 775 776 785 800 806 801 794 789 785 779 775 775 773 778 786 783 784 790 786 780 775 770 770 771 775 780 782 781 778 775 772 767 765 768 773 777 778 786 782 763 757 758 747 741 744 743 745 756 772 783 775 767 773 775 785 810 821 822 826 821 817 816 806 799 793 779 776 780 778 777 775 775 777 778 781 781 780 782 783
777 776 775 774 774 774 774 774 775 775 780 790 801 801 796 790 783 778 775 773 774 773 780 790 786 782 787 788 784 777 773 776 776 778 784 786 784 777 775 773 767 764 763 766 773 773 778 785 770 757 762 754 741 748 755 750 747 756 765 760 765 785 788 786 804 819 823 827 821 816 816 808 805 802 791 787 786 783 780 778 778 779 779 780 780 779 780 781
777 778 778 776 774 774 774 774 774 777 786 796 802 798 792 787 779 773 772 771 773 776 782 787 784 782 783 784 783 777 775 780 780 782 787 790 788 778 773 774 769 766 763 762 772 774 775 787 781 760 757 757 751 757 769 766 755 751 757 760 765 777 783 785 792 798 806 820 822 816 814 810 807 804 800 795 787 782 781 779 778 779 778 779 779 779 780 781
779 782 782 776 774 775 773 774 777 783 792 797 799 794 789 785 777 770 769 768 770 775 781 783 782 783 783 780 781 779 778 781 780 782 786 788 788 780 772 771 771 768 765 764 770 774 774 785 789 771 758 763 768 769 772 773 766 762 765 770 770 771 775 781 786 787 792 807 818 817 816 816 809 801 798 795 787 780 777 777 778 777 776 777 777 778 779 781
781 787 784 774 774 775 773 777 783 788 793 795 795 791 785 782 777 772 767 765 767 770 773 778 780 781 782 781 781 780 779 781 780 783 785 784 787 786 774 768 770 769 768 770 772 776 779 784 790 783 772 772 773 767 764 767 769 769 769 773 774 772 777 788 796 792 785 793 807 810 815 819 809 796 794 793 786 779 774 774 776 775 775 776 776 777 778 781
785 790 782 773 775 774 775 784 788 789 792 791 789 785 780 777 776 774 769 765 768 769 768 774 778 779 781 781 781 781 781 783 783 783 785 784 784 784 773 766 767 767 769 778 779 775 777 785 790 787 779 777 772 765 764 764 764 766 768 773 775 770 773 787 797 792 786 792 800 802 812 818 805 795 794 791 786 781 777 776 776 776 775 775 776 777 778 782
789 788 776 771 774 772 778 790 792 791 791 786 782 779 775 776 776 774 771 770 772 772 772 775 777 778 780 779 779 781 783 785 786 784 784 785 781 777 772 767 766 767 770 779 782 774 777 791 796 789 780 774 768 765 764 760 761 768 771 772 775 774 770 774 779 779 784 796 798 799 814 820 805 796 794 790 786 783 781 781 780 780 779 777 778 779 780 783
791 788 777 773 772 772 783 795 795 793 791 784 782 779 774 774 774 773 774 774 773 774 776 778 777 777 779 778 778 782 784 787 789 785 783 785 780 773 770 766 765 768 771 776 778 776 786 802 803 799 797 792 787 785 779 771 769 776 779 776 776 777 771 769 774 776 785 799 799 801 819 823 806 798 797 792 789 787 785 785 784 784 784 783 783 785 786 788
791 789 782 776 772 774 784 790 791 794 792 788 786 782 777 775 772 771 773 774 772 772 777 778 776 776 778 778 781 783 782 784 787 786 784 785 780 771 769 768 767 769 770 771 770 773 791 807 805 808 820 822 821 814 801 790 784 783 784 783 780 779 775 773 775 777 790 808 811 811 822 822 808 802 802 797 794 793 790 788 787 788 789 788 787 787 789 790
793 793 790 783 776 778 783 785 788 793 794 793 789 782 780 779 774 769 769 773 773 771 775 777 775 777 780 781 785 787 783 782 784 785 786 786 782 775 771 769 768 769 769 769 769 773 793 808 806 808 818 820 819 811 796 791 792 793 794 791 787 785 780 775 776 783 795 811 819 820 819 818 814 811 808 803 800 798 795 793 792 791 791 790 789 788 788 789
796 797 797 794 788 785 785 785 788 791 792 794 789 781 780 781 778 773 771 773 773 772 776 778 777 781 784 784 788 791 788 785 784 785 788 787 783 777 773 770 769 769 768 769 770 775 793 810 810 806 808 807 805 799 792 791 795 798 800 798 795 790 785 784 791 798 800 805 817 821 816 817 819 814 810 808 804 801 799 796 795 794 793 793 792 791 791 791
798 798 796 797 797 796 792 789 789 790 790 790 785 780 781 782 781 780 776 774 773 773 778 783 782 783 785 785 788 791 791 790 789 789 789 788 785 781 777 774 772 771 770 772 773 775 792 810 810 806 807 804 799 795 793 795 798 800 801 802 799 794 793 798 805 806 803 806 817 819 815 817 818 814 811 809 805 802 800 797 796 796 796 796 795 794 794 794
799 799 796 795 798 799 796 791 790 791 790 788 785 782 782 782 781 780 776 776 779 777 778 786 787 784 784 785 787 791 794 796 797 794 789 788 788 786 784 782 778 773 773 777 777 778 790 805 806 805 809 807 801 799 798 798 802 803 804 804 801 798 799 802 805 804 804 810 815 815 815 817 816 814 812 807 803 802 799 797 798 798 798 799 799 797 794 792
803 803 802 800 800 797 795 791 790 791 790 788 788 785 782 781 780 778 774 776 783 782 779 784 786 783 784 785 785 789 791 792 794 793 789 789 789 787 787 787 783 778 777 780 782 781 788 802 803 802 811 815 807 802 802 803 807 809 809 808 805 803 802 805 808 806 807 814 816 813 816 819 815 812 810 805 802 801 800 801 801 800 800 800 800 799 795 792
805 805 805 806 803 797 795 793 791 793 792 790 791 788 784 782 778 776 775 774 777 779 778 781 783 782 784 785 785 787 786 785 786 785 782 784 786 784 784 784 783 783 782 784 785 783 786 798 800 800 817 825 813 806 807 805 806 811 812 812 811 810 809 812 813 810 809 814 816 813 816 820 815 812 810 807 805 804 805 805 803 802 802 802 802 801 799 798
805 804 804 806 804 798 796 794 793 795 793 791 791 788 786 784 777 776 779 776 772 772 773 776 779 782 786 788 786 783 780 779 780 778 777 779 779 778 779 779 780 782 783 785 788 789 790 795 799 803 817 823 814 810 812 810 815 822 818 813 813 815 815 815 815 812 809 809 812 814 817 817 814 811 811 811 809 809 809 808 807 807 805 805 804 803 802 802